DateTimeUTC,F1_A11,F1_S11,BsB_S11,BsG_S11,BsR_S11,BbsB_S11,BbsG_S11,BbsR_S11,BaB_A11,BaG_A11,BaR_A11,Tu_S11,T_S11,Uu_S11,U_S11,P_S11,T1_A11
2021-11-17T01:00:00Z,00000200,21000000,,,,,,,0000.01,-000.21,0000.28,18.9,25.8,,00.0,0640.0,30.8
2021-11-17T01:01:00Z,00000200,21000000,,,,,,,0000.29,0000.44,-000.32,18.9,25.8,,00.0,0640.0,30.8
2021-11-17T01:02:00Z,00000200,21000000,,,,,,,-000.22,-000.32,-000.00,18.9,25.8,,00.0,0640.0,30.8
2021-11-17T01:03:00Z,00000200,61000000,,,,,,,0000.48,0000.42,0000.48,18.9,25.8,,00.0,0640.0,30.8
2021-11-17T01:04:00Z,00000200,41000000,0000.43,0000.21,0000.19,0000.04,0000.28,0000.55,-000.03,0000.27,0000.10,19.1,25.7,,00.0,0640.8,30.8
2021-11-17T01:05:00Z,00000200,01000000,0000.11,0000.31,0000.24,-000.01,0000.12,0000.34,0000.18,0000.30,0000.18,19.0,25.6,,00.0,0640.8,30.8
2021-11-17T01:06:00Z,00000200,01000000,0000.51,0000.27,0000.41,-000.13,0000.06,0000.09,0000.34,-000.15,0000.20,18.9,25.6,,00.0,0640.8,30.8
2021-11-17T01:07:00Z,00000200,01000000,0001.23,0000.22,0000.21,-000.03,0000.12,-000.25,0000.14,0000.25,0000.52,18.8,25.5,,00.0,0640.8,30.8
2021-11-17T01:08:00Z,00000200,01000000,0000.62,0000.10,0000.34,-000.34,0000.07,0000.21,0000.38,0000.61,-000.37,18.7,25.4,,00.0,0640.8,30.7
2021-11-17T01:09:00Z,00000200,01000000,-000.02,-000.04,0000.14,-000.12,-000.17,0000.06,0000.26,0000.07,0000.76,18.6,25.4,,00.0,0640.8,30.7
2021-11-17T01:10:00Z,00000200,01000000,0000.11,0000.14,0000.22,0000.05,-000.07,0000.35,0000.24,0000.24,-000.11,18.6,25.3,,00.0,0640.8,30.7
2021-11-17T01:11:00Z,00000200,01000000,-000.16,0000.40,0000.12,0000.43,0000.32,0000.03,0000.42,0000.20,0000.12,18.6,25.3,,00.0,0640.8,30.8
2021-11-17T01:12:00Z,00000200,01000000,0000.36,0000.07,0000.50,-000.29,0000.03,0000.32,-000.05,0000.31,-000.15,18.6,25.3,,00.0,0640.8,30.7
2021-11-17T01:13:00Z,00000200,01000000,0001.05,0000.54,0000.13,-000.14,0000.16,0000.09,0000.16,0000.09,0000.32,18.7,25.3,,00.0,0640.8,30.8
2021-11-17T01:14:00Z,00000200,01000000,0000.05,0000.15,0000.33,0000.12,0000.06,0000.53,0000.09,0000.07,0000.23,18.7,25.3,,00.0,0640.7,30.8
2021-11-17T01:15:00Z,00000200,01000000,0000.57,0000.30,0000.25,-000.28,0000.13,-000.26,0000.58,0000.40,0000.10,18.7,25.3,,00.0,0640.7,30.8
2021-11-17T01:16:00Z,00000200,01000000,0000.50,0000.37,0000.15,-000.05,0000.16,0000.42,0000.27,0000.14,0000.42,18.7,25.3,,00.0,0640.7,30.8
2021-11-17T01:17:00Z,00000200,01000000,0000.87,0000.16,0000.39,0000.70,-000.07,0000.23,0000.19,0000.28,0000.02,18.7,25.3,,00.0,0640.7,30.8
2021-11-17T01:18:00Z,00000200,01000000,0000.07,-000.08,0000.01,-000.13,0000.19,0000.30,0000.36,0000.02,0000.20,18.8,25.3,,00.0,0640.7,30.8
2021-11-17T01:19:00Z,00000200,01000000,0000.68,0000.56,0000.55,-000.50,0000.19,0000.46,-000.14,0000.12,-000.01,18.8,25.3,,00.0,0640.7,30.8
2021-11-17T01:20:00Z,00000200,01000000,0000.22,0000.30,0000.18,-000.05,0000.16,0000.27,0000.41,0000.36,0000.34,18.8,25.4,,00.0,0640.7,30.8
2021-11-17T01:21:00Z,00000200,01000000,0000.64,0000.40,0000.37,-000.41,0000.23,0000.22,0000.32,0000.11,-000.03,18.8,25.4,,00.0,0640.7,30.8
2021-11-17T01:22:00Z,00000200,01000000,0000.28,0000.09,0000.39,-000.18,0000.25,0000.16,0000.14,0000.51,-000.02,18.9,25.4,,00.0,0640.7,30.8
2021-11-17T01:23:00Z,00000200,01000000,0000.80,0000.27,-000.10,-000.03,-000.03,0000.04,0000.20,0000.03,0000.68,18.9,25.4,,00.0,0640.7,30.8
2021-11-17T01:24:00Z,00000200,01000000,-000.00,0000.25,-000.03,0000.09,0000.13,0000.22,0000.60,0000.72,0000.45,19.0,25.4,,00.0,0640.7,30.8
2021-11-17T01:25:00Z,00000200,01000000,0001.06,0000.07,-000.03,-000.03,0000.02,0000.11,-000.33,-000.31,-000.16,19.0,25.4,,00.0,0640.7,30.8
2021-11-17T01:26:00Z,00000200,01000000,0000.81,0000.52,0000.25,0000.19,0000.23,0000.20,0000.36,0000.27,-000.01,19.0,25.4,,00.0,0640.7,30.8
2021-11-17T01:27:00Z,00000200,01000000,0000.78,-000.21,0000.01,0000.10,0000.14,-000.18,0000.23,-000.06,0000.14,19.0,25.4,,00.0,0640.7,30.9
2021-11-17T01:28:00Z,00000200,01000000,0000.57,0000.23,0000.27,0000.03,0000.22,0000.21,0000.15,0000.36,0000.24,19.1,25.4,,00.0,0640.7,30.8
2021-11-17T01:29:00Z,00000200,01000000,0000.57,-000.12,0000.16,-000.36,-000.03,-000.16,0000.50,0000.13,0000.36,19.1,25.5,,00.0,0640.7,30.9
2021-11-17T01:30:00Z,00000200,01000000,0000.59,0000.37,0000.31,0000.13,0000.27,0000.38,0000.17,0000.29,-000.16,19.1,25.5,,00.0,0640.7,30.9
2021-11-17T01:31:00Z,00000200,01000000,0000.40,0000.14,0000.10,-000.18,-000.08,0000.20,0000.23,0000.21,0000.25,19.2,25.5,,00.0,0640.7,30.9
2021-11-17T01:32:00Z,00000200,01000000,0000.46,0000.18,0000.07,-000.20,0000.23,0000.12,-000.01,0000.31,0000.24,19.2,25.5,,00.0,0640.7,30.9
2021-11-17T01:33:00Z,00000200,01000000,0000.82,0000.06,0000.48,-000.22,0000.17,0000.14,0000.47,0000.00,0000.28,19.2,25.5,,00.0,0640.7,30.9
2021-11-17T01:34:00Z,00000200,01000000,0000.90,-000.00,0000.27,0000.69,0000.06,0000.18,0000.04,0000.24,0000.13,19.2,25.6,,00.0,0640.7,30.9
2021-11-17T01:35:00Z,00000200,01000000,0000.62,0000.18,0000.24,0000.28,0000.27,-000.00,0000.21,0000.15,0000.54,19.3,25.6,,00.0,0640.7,30.9
2021-11-17T01:36:00Z,00000200,01000000,0000.16,0000.42,0000.75,-000.16,0000.03,0000.45,0000.23,0000.74,-000.03,19.3,25.6,,00.0,0640.6,30.9
2021-11-17T01:37:00Z,00000200,01000000,0000.86,-000.03,0000.05,-000.29,0000.32,0000.36,0000.25,-000.31,-000.08,19.3,25.6,,00.0,0640.6,30.9
2021-11-17T01:38:00Z,00000200,01000000,0000.39,0000.24,0000.42,-000.34,0000.16,0000.31,0000.16,0000.33,0000.33,19.3,25.6,,00.0,0640.7,30.9
2021-11-17T01:39:00Z,00000200,01000000,0000.93,-000.17,0000.11,-000.82,0000.27,0000.12,0000.36,0000.00,-000.28,19.2,25.6,,00.0,0640.7,30.9
2021-11-17T01:40:00Z,00000200,01000000,0000.85,0000.17,0000.05,-000.32,0000.22,0000.59,0000.18,0000.40,0000.51,19.2,25.5,,00.0,0640.7,30.9
2021-11-17T01:41:00Z,00000200,01000000,0000.76,0000.03,0000.28,-000.07,0000.11,0000.14,0000.08,0000.01,0000.02,19.2,25.5,,00.0,0640.7,30.9
2021-11-17T01:42:00Z,00000200,01000000,0000.29,0000.36,0000.11,-000.20,-000.27,-000.05,0000.11,0000.31,0000.18,19.2,25.5,,00.0,0640.7,30.9
2021-11-17T01:43:00Z,00000200,01000000,0000.23,-000.14,0000.23,0000.59,-000.08,0000.38,0000.25,0000.07,0000.05,19.2,25.6,,00.0,0640.7,30.9
2021-11-17T01:44:00Z,00000200,01000000,0000.51,-000.04,0000.19,-000.21,-000.04,0000.38,0000.49,0000.45,0000.47,19.2,25.6,,00.0,0640.7,30.9
2021-11-17T01:45:00Z,00000200,01000000,0000.71,0000.28,0000.06,0000.11,0000.02,0000.09,0000.07,0000.12,0000.20,19.2,25.6,,00.0,0640.7,30.8
2021-11-17T01:46:00Z,00000200,01000000,0000.53,0000.50,0000.13,0000.15,0000.32,0000.07,-000.18,0000.21,-000.23,19.3,25.6,,00.0,0640.7,30.9
2021-11-17T01:47:00Z,00000200,01000000,0001.07,0000.11,0000.15,-000.61,0000.18,-000.16,0000.85,-000.16,0000.32,19.3,25.6,,00.0,0640.7,30.9
2021-11-17T01:48:00Z,00000200,01000000,0000.89,0000.13,0000.31,-000.61,0000.33,0000.23,-000.42,0000.30,0000.06,19.3,25.6,,00.0,0640.7,30.9
2021-11-17T01:49:00Z,00000200,01000000,0000.24,0000.38,0000.32,-000.02,0000.23,0000.48,0000.07,-000.06,0000.05,19.4,25.6,,00.0,0640.7,30.9
2021-11-17T01:50:00Z,00000200,01000000,0000.63,-000.06,0000.44,-000.20,0000.16,0000.25,0000.39,0000.30,0000.09,19.3,25.7,,00.0,0640.6,30.9
2021-11-17T01:51:00Z,00000200,01000000,0000.58,0000.27,0000.37,-000.35,0000.27,-000.05,0000.07,0000.24,0000.06,19.2,25.6,,00.0,0640.6,30.8
2021-11-17T01:52:00Z,00000200,01000000,0000.33,0000.20,0000.10,-000.08,-000.14,0000.27,0000.16,-000.00,-000.09,19.1,25.6,,00.0,0640.6,30.8
2021-11-17T01:53:00Z,00000200,01000000,0000.16,0000.45,0000.43,0000.36,0000.21,0000.19,0000.15,0000.17,0000.30,19.0,25.5,,00.0,0640.6,30.8
2021-11-17T01:54:00Z,00000200,01000000,0001.00,0000.52,0000.19,-000.44,0000.00,0000.02,-000.06,0000.16,0000.03,18.9,25.4,,00.0,0640.6,30.8
2021-11-17T01:55:00Z,00000200,01000000,0000.29,0000.34,0000.07,0000.10,0000.22,0000.29,0000.63,0000.07,0000.25,18.9,25.4,,00.0,0640.7,30.8
2021-11-17T01:56:00Z,00000200,01000000,0000.26,0000.40,0000.30,-000.51,-000.00,0000.27,0000.60,0000.56,0000.42,18.9,25.4,,00.0,0640.7,30.8
2021-11-17T01:57:00Z,00000200,41000000,,,,,,,-000.42,-000.36,-000.68,19.0,25.4,,00.0,0640.7,30.8
2021-11-17T01:58:00Z,00000200,61000000,,,,,,,0000.17,0000.08,0000.47,18.6,25.5,,00.0,0639.7,30.8
2021-11-17T01:59:00Z,00000200,21000000,,,,,,,-000.07,0000.10,-000.29,18.6,25.6,,00.0,0639.7,30.8
